Hourly Data Report for February 14, 2013

BAGOTVILLE A
QUEBEC

48°20'00.000" N
71°00'00.000" W
159.10 m
7060400
71727
YBG

Download Data

Hourly Data (February 2013)
Hourly Data Report for February 14, 2013
TIME
LST
Temp Definition
°C
Dew Point Definition
°C
Rel Hum Definition
%
Precip. Amount Definition
mm

Wind Dir Definition
10's deg

Wind Spd Definition
km/h
Visibility Definition
km
Stn Press Definition
kPa
Hmdx Definition


Wind Chill Definition


Weather Definition


00:00 -10.4 -11.7 90   14 4 24.1 98.83   -13 Snow Showers
01:00 -9.4 -10.6 91   13 4 4.8 98.82   -12 Snow Showers
02:00 -11.7 -13.1 89   11 4 24.1 98.81   -14 Mainly Clear
03:00 -14.2 -15.4 91   13 6 24.1 98.81   -18 Mostly Cloudy
04:00 -10.5 -11.4 93   13 6 24.1 98.81   -14 Snow Showers
05:00 -10.5 -11.8 90   12 6 24.1 98.81   -14 Snow Showers
06:00 -10.0 -11.2 91   10 4 12.9 98.89   -12 Snow Showers
07:00 -10.0 -11.2 91   11 7 32.2 98.94   -14 Snow Showers
08:00 -9.9 -11.5 88   11 4 40.2 99.03   -12 Snow Showers
09:00 -9.6 -11.6 85   10 6 40.2 99.05   -13 Snow Showers
10:00 -8.4 -10.2 87   9 4 40.2 99.10   -11 Snow Showers
11:00 -7.1 -9.0 86   8 7 40.2 99.09   -11 Snow Showers
12:00 -5.2 -7.8 82   9 4 40.2 99.09   -7 Mostly Cloudy
13:00 -4.1 -6.1 86   9 7 40.2 99.08   -7 Snow Showers
14:00 -2.9 -4.7 87   9 9 40.2 99.07   -6 Mostly Cloudy
15:00 -1.7 -3.0 91   10 7 40.2 99.10   -4 Mostly Cloudy
16:00 -2.9 -6.6 76   14 7 40.2 99.11   -6 Mostly Cloudy
17:00 -3.0 -6.7 76   11 6 40.2 99.15   -5 Mostly Cloudy
18:00 -5.7 -8.1 83   21 7 24.1 99.23   -9 Snow Showers
19:00 -3.6 -5.8 85   16 4 9.7 99.24   -5 Snow Showers
20:00 -4.5 -6.3 87   16 4 24.1 99.26   -6 Mostly Cloudy
21:00 -5.0 -7.2 85   11 7 24.1 99.28   -8 Mostly Cloudy
22:00 -5.9 -7.3 90   12 7 24.1 99.28   -9 Mostly Cloudy
23:00 -7.7 -8.7 93   10 4 24.1 99.30   -10 Mostly Cloudy

Notes on Data Quality.

Legend

  • E = Estimated
  • M = Missing
  • NA = Not Available*
  • [empty] = Indicates an unobserved value
Date modified: